Погода в Оренбурге

Погода в Оренбурге : погода сейчас, прогноз погоды и архив. Всё, что Вы хотите узнать о погоде в Оренбурге!

Хотите узнать прогноз погоды в Оренбурге? Тогда Вам сюда: Погода в Оренбурге

Поиск расширенной информации на нашем сайте:

Другие новости

Новости СМИ2

Главная страница сайта

Новости сайта

03.07.2017

Напоминаем, что на нашем специализированном сайте Метеоцентр.Азия вы можете получить высокодетализированные автоматические прогнозы погоды по пунктам России, СНГ и мира в авиационном формате (включающие направление и скорость ветра, видимость, явления погоды, количество и форму облачности, нижнюю и верхнюю границу облачности).


Погода в Оренбурге - сегодня

Время (UTC), дата Ветер
(°,м/с) 
Видим.   Явления Облачность Т
(°С)
Тd
(°С)
f(%) Тe
(°С)
Pmin
(гПа)
dP
(гПа)
Po
(мм)
O2
(г/м3)
Тmin Tmax R s Состояние
почвы
12 18.06.18 330 (СЗ) 20000 м    3/3 1500 м 
[Cu hum]
+21.2 +8.1 43 +21  1009.2  -0.5  747  278           
15 18.06.18 340 (С) 20000 м    ясно 
+21.7 +8.3 42 +22  1008.5  -0.6  746  277    +22.3       
18 18.06.18 290 (З) 20000 м    1/0 средняя 
[Ac trans]
+16.4 +8.5 59 +18  1009.4  0.6  747  282           
21 18.06.18 260 (З) 20000 м    1/0 средняя 
[Ac trans]
+12.8 +7.9 72 +13  1009.3  -0.3  746  286           
00 19.06.18 230 (ЮЗ) 20000 м    3/0 средняя 
[Ac trans]
+11.1 +7.1 76 +12  1009.5  0.1  747  288           
03 19.06.18 260 (З) 20000 м    6/4 1000 м средняя 
[Sc|Ac trans]
+18.8 +10.2 57 +22  1009.4  0.3  747  280  +10.8        сухая 
06 19.06.18 310 (СЗ) 20000 м    3/3 1000 м 
[Cu hum]
+24.8 +10.9 42 +27  1009.1  747  274           
09 19.06.18 310 (СЗ) 20000 м    6/6 600 м 
[Cu hum]
+26.7 +9.5 34 +27  1008.4  -0.7  746  272           
18 19.06.18 250 (З) 20000 м    3/3 1000 м 
[Cu hum]
+20.6 +7.9 44 +21  1008.4  0.9  746  278           
21 19.06.18 220 (ЮЗ) 20000 м    ясно 
+17 +6.9 51 +17  1008.6  746  282           
00 20.06.18 210 (ЮЗ) 20000 м    3/3 600 м 
[Sc]
+14.5 +6.4 58 +15  1008.6  0.1  746  284           
03 20.06.18 260 (З) 20000 м    3/3 600 м 
[Sc]
+20 +9.2 50 +20  1008.7  0.3  746  279  +13.5        сухая 
06 20.06.18 270 (З) 20000 м    3/1 600 м верхняя 
[Cu med, cong|Ci fib]
+28.2 +12.1 37 +32  1007.9  -0.4  746  270           
09 20.06.18 270 (З) 6{11}  0500 м    8/8 600 м кучево-дожд. 
[Cb cap]
+29.7 +12.3 34 +34  1006.7  -1.2  745  268           
15 20.06.18 270 (З) 5{11}  20000 м    9/4 1000 м верхняя 
[Cu hum|Ci fib]
+29.9 +10.9 31 +32  1003.6  -1.2  743  268    +31.1  0.0     
18 20.06.18 260 (З) 5{11}  20000 м    9/4 1000 м средняя 
[Sc|Ac As]
+24.8 +8.1 34 +25  1003.9  743  273           
21 20.06.18 300 (СЗ) 20000 м    8/0 средняя 
[Ac As]
+21.9 +13 57 +28  1004.4  0.3  743  275           
00 21.06.18 320 (СЗ) 20000 м    10/8 1000 м средняя 
[Sc|Ac trans]
+17.9 +11.6 67 +22  1005.5  0.9  744  279           
03 21.06.18 330 (СЗ) 20000 м    6/6 600 м 
[Sc diur, vesp]
+18.5 +9.8 57 +20  1007.2  1.7  745  279  +16.3        сухая 
06 21.06.18 300 (СЗ) 20000 м    1/1 1500 м 
[Cu hum]
+23.2 +7.7 37 +23  1006.9  745  275           
15 21.06.18 280 (З) 6-11{14}  20000 м    1/1 1500 м 
[Cu hum]
+25 +6.6 31 +25  1003.9  -1.1  743  273    +26.8       
18 21.06.18 280 (З) 3{11}  20000 м    8/0 средняя, верхняя 
[Ac trans|Ci fib]
+18.6 +5.5 42 +19  1005.2  744  280           
21 21.06.18 300 (СЗ) 20000 м    6/0 средняя 
[Ac trans]
+19 +5.7 42 +19  1005.8  0.6  744  279           
00 22.06.18 250 (З) 20000 м    1/0 верхняя 
[Ci sp]
+12.5 +4.4 58 +12  1006.5  0.3  744  286           
03 22.06.18 270 (З) 20000 м    1/0 верхняя 
[Ci sp]
+17.1 +6.8 51 +17  1006.8  0.6  745  281  +10.4        сухая 
Время (UTC), дата Ветер
(°,м/с) 
Видим.   Явления Облачность Т
(°С)
Тd
(°С)
f(%) Тe
(°С)
Pmin
(гПа)
dP
(гПа)
Po
(мм)
O2
(г/м3)
Тmin Tmax R s Состояние
почвы

Для получения пояснительной информации подведите курсор к названию столбца.

ПОГОДА в Оренбурге - архив

Всё, что Вы хотите узнать о погоде в Оренбурге - удобно и подробно!

Выберите нужную дату (начиная с 1 января 2015* года) и нажмите кнопку "Найти".
Будут отображены архивные сводки погоды по пункту Оренбург, начиная с указанной даты.


Отображать данные в формате CSV (для использования в таблицах Excel)


Внимание! Наш архив погоды предназначен исключительно для личного некоммерческого использования в познавательных целях. Если Вам необходимы официальные справки о состоянии погоды (для производственных, юридических, коммерческих и т.п. целей), обращайтесь в органы Росгидромета.

*Примечание: данная дата относится к архиву по метеостанциям СССР (Россия, СНГ, Балтия).
Архив по метеостанциям Зарубежной Европы и Азии (кроме Китая) хранится 10 дней, по другим регионам земного шара (Китай, Африка, Америка, Австралия, Океания) - 1 день.

Оренбург - район местоположения метеостанции


Название, широта, долгота, высота метеостанции:
Оренбург (город) 51.7°ш. 55.1°д. 117 м над ур. моря [Российская Федерация]

Дополнительная информация

В oтличие oт бoльшинства пoгoдных сайтoв мы публикуем пoдрoбную метеoинфoрмацию в детальнoм прoфессиoнальнoм фoрмате.

Характеристики температуры и влажнoсти вoздуха измеряются на высoте 2 м в тени вдали oт зданий и деревьев.
Скoрoсть ветра измеряется на высoте 10 м (на урoвне рoста челoвека скoрoсть ветра ниже в 1.5-2 раза). Если метеoстанция нахoдится в гoрoде или в лесу, тo скoрoсть ветра занижена на 2-4 м/с пo сравнению с oткрытым местoм. Скoрoсть ветра над акватoриями крупных рек и oзёр, а также на вершинах хoлмoв на 2-5 м/с выше, чем в oбычных услoвиях.
Атмoсфернoе давление в разных тoчках местнoсти мoжет значительнo oтличаться oт давления на метеoстанции, в зависимoсти oт услoвий рельефа (при пoдъёме на 10 м давление пoнижается примернo на 1 мм рт.ст.).